Temp
19 19 18 19 16 15 16 17 18 20 21 23 23 22 21 20 20 19 20 20 20 19 19 18 17 17 17 17 17 17 16 16 16 16 15 16 17 17 17 17 15 15 16 15 15 15 15 15 15
19 18 18 18 15 15 15 17 18 21 22 22 22 22 21 20 19 19 18 19 19 19 18 17 17 17 17 17 17 17 16 16 16 15 17 17 17 17 17 17 15 14 15 15 15 15 15 14 15
18 18 18 15 14 15 16 18 18 21 22 23 22 21 20 19 19 19 18 19 18 18 18 17 17 17 17 17 16 16 16 16 15 16 17 17 17 17 17 16 15 15 15 15 15 14 14 14 14
17 17 17 16 15 16 17 19 19 20 22 22 22 20 19 19 19 19 18 18 17 17 17 17 17 17 16 16 16 16 15 16 17 17 17 17 17 16 16 15 15 14 14 15 14 14 14 14 14
17 17 15 16 15 17 18 19 20 19 21 21 21 20 18 18 19 19 18 17 17 16 16 16 16 16 16 16 16 14 15 17 17 17 14 15 14 14 15 14 15 14 14 14 14 14 14 14 14
16 16 16 16 16 18 19 21 21 21 19 20 20 19 18 18 19 18 18 17 17 16 16 16 16 16 16 16 16 17 17 17 17 16 14 13 14 14 14 14 14 15 14 14 14 13 13 13 14
14 13 14 15 16 18 20 20 19 18 18 19 18 18 16 17 17 18 17 16 16 16 16 16 16 17 17 17 17 17 17 17 15 15 14 13 14 14 14 15 15 14 14 14 13 13 13 13 14
17 13 14 14 16 17 20 20 19 19 18 19 19 17 16 17 18 17 17 16 16 16 15 15 16 17 17 17 17 17 17 15 15 15 14 13 14 14 14 14 14 14 14 13 13 14 14 14 15
16 13 12 15 16 18 19 19 19 19 19 19 18 19 20 18 17 16 16 15 15 15 15 15 16 17 17 17 17 16 14 14 14 14 14 14 15 14 14 14 14 13 14 14 14 14 14 15 15
14 11 13 15 17 16 17 18 19 19 19 19 18 18 18 17 17 17 16 15 15 15 15 15 15 17 17 16 15 15 15 14 15 15 15 14 14 14 13 13 13 13 14 14 14 14 14 14 14
14 12 14 16 17 17 17 17 18 18 16 19 19 19 18 18 16 17 17 17 18 17 16 16 16 16 16 15 14 15 14 15 14 14 15 15 14 14 14 14 14 14 14 14 14 14 14 14 14
14 15 15 16 17 16 16 18 17 18 19 20 21 19 19 17 17 17 16 17 17 17 17 16 16 16 16 15 15 15 14 15 14 15 15 15 14 14 14 14 14 14 14 14 14 14 13 13 13
13 14 16 16 16 15 16 15 16 18 19 20 20 19 18 18 18 17 17 17 17 17 17 16 16 16 15 15 15 15 15 15 15 15 14 14 14 14 14 14 14 14 13 14 13 13 13 13 13
14 14 14 15 16 15 15 15 16 18 19 19 19 19 18 18 18 16 16 17 17 17 18 18 17 17 15 15 15 15 15 15 15 14 14 14 14 14 14 14 13 13 13 13 13 13 13 13 13
14 12 12 14 15 14 15 14 15 17 18 18 18 17 16 17 17 17 18 17 17 18 18 19 17 17 16 14 15 15 15 15 15 15 14 14 14 14 14 14 13 13 13 13 13 13 13 13 13
13 12 11 13 13 16 16 12 14 17 16 17 18 18 16 16 17 17 17 18 18 18 17 18 18 17 16 15 15 15 15 15 15 15 14 14 14 13 13 13 13 13 13 13 13 13 13 12 12
10 11 11 12 14 14 15 12 14 17 16 15 17 17 17 16 16 16 16 17 18 17 16 17 19 18 17 16 15 15 15 15 15 14 14 14 14 13 13 13 13 13 13 12 12 12 12 12 12
11 10 11 10 12 13 12 11 12 15 15 15 16 17 17 17 18 18 17 17 17 17 16 18 17 17 16 16 15 14 14 14 14 14 14 14 14 13 13 13 13 12 12 12 12 12 12 12 11
11 10 10 12 12 12 11 11 11 13 13 13 15 16 17 18 19 18 18 16 17 17 16 17 17 17 16 16 15 15 14 14 14 14 13 13 14 13 13 13 13 13 12 12 12 12 12 11 11
12 11 11 12 12 12 12 11 12 12 13 14 15 16 16 17 18 18 17 16 16 16 16 16 15 15 16 15 15 15 14 14 14 13 13 13 13 13 13 13 13 12 12 12 12 12 12 11 11
12 11 11 11 11 12 11 10 10 12 12 13 12 12 13 15 16 17 17 16 16 16 16 16 15 14 16 14 15 15 14 13 12 12 11 11 11 12 12 12 12 12 12 12 12 11 11 11 11
11 13 12 11 9 9 10 8 9 9 10 10 10 10 11 14 16 17 17 18 17 17 16 15 15 15 16 16 14 14 14 13 12 12 10 9 9 10 12 12 12 12 12 11 11 11 11 11 10
12 12 11 10 9 9 9 8 8 8 9 10 10 9 10 12 17 19 18 19 20 17 17 16 14 15 16 16 15 14 13 13 13 10 10 10 10 11 11 11 12 11 11 11 11 11 11 10 10
12 11 9 8 8 9 9 8 8 9 9 9 10 9 9 11 15 17 17 16 16 15 14 15 15 15 15 15 14 13 13 10 9 9 10 10 10 11 11 10 11 11 11 11 10 10 10 10 9
10 9 8 8 6 7 9 9 8 10 10 10 9 9 9 11 13 14 14 14 14 14 14 14 13 13 13 13 13 12 10 11 10 10 11 10 11 10 10 10 11 11 10 10 10 10 10 10 9
10 9 8 10 9 9 9 9 9 10 11 10 9 8 9 10 11 12 13 13 13 13 13 13 12 13 12 12 12 11 11 11 10 10 10 10 10 10 9 10 10 10 10 10 10 10 9 9 8
12 8 9 8 6 8 6 11 10 9 10 10 9 8 8 9 10 11 12 13 13 13 13 13 13 12 12 11 11 11 11 11 10 10 10 10 9 9 8 9 10 10 10 10 10 9 8 8 7
11 9 9 7 7 9 9 9 10 10 9 9 9 7 7 9 10 11 11 12 13 13 12 13 14 12 11 11 12 10 10 9 10 10 9 9 9 9 10 10 10 10 9 9 9 8 7 7 7
10 10 9 8 9 8 10 9 10 9 8 8 8 7 7 8 9 9 11 12 12 12 12 12 12 12 11 11 10 10 9 9 10 10 10 9 9 9 10 10 9 9 8 8 7 7 6 6 5
11 12 9 7 9 8 8 9 9 8 8 8 8 7 8 8 9 10 11 11 11 11 11 11 11 11 11 10 11 10 10 10 10 10 10 10 9 9 8 8 7 7 7 7 6 6 5 4 4
Height
1510 1511 1513 1513 1524 1524 1528 1520 1508 1504 1501 1496 1495 1494 1493 1496 1495 1510 1494 1497 1502 1507 1513 1518 1521 1525 1528 1530 1532 1535 1536 1538 1540 1541 1541 1541 1542 1543 1544 1545 1546 1546 1546 1546 1547 1547 1547 1546 1545
1510 1511 1513 1513 1527 1536 1530 1510 1507 1503 1499 1496 1495 1494 1494 1495 1493 1493 1495 1497 1503 1507 1512 1517 1521 1525 1527 1530 1533 1534 1537 1538 1540 1541 1542 1542 1542 1543 1545 1546 1548 1548 1548 1548 1549 1549 1548 1548 1547
1508 1510 1513 1515 1524 1529 1523 1505 1502 1499 1497 1496 1494 1494 1494 1496 1495 1496 1496 1499 1504 1507 1512 1516 1522 1525 1528 1530 1532 1535 1537 1538 1539 1541 1542 1542 1544 1545 1545 1547 1549 1549 1550 1550 1551 1550 1550 1550 1550
1508 1511 1514 1516 1521 1512 1507 1500 1499 1499 1496 1495 1495 1495 1496 1496 1497 1497 1499 1502 1505 1509 1512 1517 1521 1525 1528 1531 1534 1535 1536 1538 1539 1541 1542 1542 1544 1546 1548 1549 1550 1550 1551 1551 1552 1552 1552 1552 1552
1508 1509 1515 1515 1515 1506 1502 1501 1499 1499 1498 1495 1495 1494 1496 1498 1498 1498 1500 1504 1507 1511 1515 1517 1521 1525 1527 1530 1532 1535 1536 1537 1539 1540 1542 1543 1545 1547 1548 1550 1550 1551 1551 1552 1554 1554 1554 1554 1554
1506 1508 1514 1514 1513 1504 1500 1498 1498 1497 1498 1497 1494 1496 1497 1497 1499 1499 1501 1504 1509 1512 1516 1519 1521 1524 1526 1530 1531 1534 1535 1538 1539 1540 1544 1545 1545 1547 1549 1550 1551 1552 1552 1553 1554 1555 1555 1556 1555
1504 1510 1513 1512 1510 1504 1499 1498 1497 1498 1496 1492 1497 1496 1499 1498 1498 1501 1503 1506 1509 1513 1517 1519 1521 1523 1526 1529 1531 1533 1535 1538 1541 1542 1544 1546 1546 1546 1547 1548 1550 1553 1554 1554 1555 1556 1556 1556 1556
1504 1506 1511 1508 1509 1506 1498 1497 1499 1498 1497 1498 1497 1499 1498 1496 1497 1501 1502 1507 1509 1513 1516 1519 1521 1523 1525 1528 1531 1534 1536 1538 1541 1543 1545 1546 1546 1547 1548 1549 1550 1552 1553 1555 1556 1557 1558 1558 1557
1504 1511 1516 1508 1506 1501 1497 1498 1498 1498 1497 1497 1496 1496 1489 1495 1496 1500 1502 1505 1508 1512 1514 1519 1521 1523 1525 1528 1530 1534 1537 1539 1541 1543 1544 1545 1546 1548 1550 1549 1552 1552 1554 1555 1556 1558 1559 1559 1559
1504 1513 1510 1503 1501 1501 1498 1498 1497 1499 1496 1495 1493 1494 1494 1494 1494 1497 1498 1501 1506 1509 1512 1517 1520 1523 1525 1527 1530 1533 1536 1538 1540 1542 1544 1545 1546 1548 1551 1551 1552 1553 1554 1556 1557 1559 1560 1561 1562
1505 1509 1503 1501 1499 1499 1497 1495 1495 1495 1495 1492 1491 1492 1493 1493 1496 1495 1498 1498 1499 1505 1510 1514 1519 1521 1524 1526 1530 1533 1535 1537 1540 1542 1544 1544 1546 1546 1549 1552 1553 1553 1556 1557 1559 1559 1561 1563 1564
1507 1502 1501 1499 1497 1496 1495 1494 1490 1490 1489 1489 1487 1489 1489 1489 1490 1490 1495 1498 1497 1502 1507 1512 1517 1520 1523 1526 1529 1533 1535 1537 1540 1542 1545 1545 1547 1548 1548 1552 1554 1555 1557 1558 1560 1561 1562 1564 1565
1504 1501 1499 1496 1494 1492 1491 1489 1488 1483 1484 1485 1483 1483 1483 1484 1486 1488 1493 1497 1500 1499 1503 1509 1513 1518 1523 1526 1529 1532 1535 1537 1539 1540 1543 1545 1547 1549 1549 1553 1555 1556 1558 1560 1561 1563 1565 1565 1566
1503 1501 1497 1494 1492 1490 1488 1485 1485 1480 1479 1479 1479 1478 1479 1479 1481 1485 1488 1491 1495 1497 1497 1503 1509 1514 1520 1524 1528 1531 1534 1536 1539 1540 1542 1543 1546 1548 1551 1553 1555 1557 1559 1561 1563 1564 1566 1567 1568
1500 1501 1497 1493 1492 1489 1486 1485 1482 1477 1477 1475 1474 1476 1478 1477 1478 1478 1482 1486 1491 1494 1498 1496 1504 1511 1518 1523 1526 1529 1533 1535 1536 1539 1541 1543 1545 1546 1549 1553 1555 1556 1558 1560 1562 1564 1566 1568 1568
1501 1501 1507 1494 1491 1487 1487 1493 1479 1477 1475 1474 1473 1473 1474 1476 1476 1477 1480 1485 1489 1492 1495 1496 1499 1507 1515 1520 1523 1527 1531 1533 1536 1538 1540 1543 1544 1546 1547 1550 1555 1556 1558 1559 1561 1564 1565 1567 1569
1508 1511 1507 1499 1487 1488 1487 1488 1479 1475 1474 1473 1471 1470 1471 1472 1473 1475 1478 1483 1484 1490 1494 1496 1496 1504 1511 1518 1521 1525 1529 1532 1534 1538 1539 1541 1544 1545 1548 1548 1552 1556 1558 1559 1561 1562 1564 1565 1567
1512 1510 1505 1504 1489 1486 1487 1485 1477 1472 1471 1470 1469 1468 1467 1468 1467 1470 1473 1480 1483 1487 1490 1494 1497 1504 1511 1516 1519 1523 1525 1528 1532 1535 1537 1540 1541 1544 1547 1548 1550 1555 1557 1559 1560 1562 1563 1565 1567
1504 1505 1503 1492 1484 1487 1485 1481 1474 1468 1466 1466 1466 1465 1463 1463 1464 1465 1468 1473 1480 1484 1486 1492 1496 1503 1508 1511 1516 1520 1522 1525 1528 1531 1535 1538 1539 1542 1545 1547 1550 1552 1556 1559 1560 1562 1562 1563 1565
1499 1501 1497 1487 1482 1482 1478 1477 1467 1463 1461 1461 1462 1461 1460 1458 1459 1460 1463 1467 1473 1478 1483 1488 1494 1501 1507 1509 1512 1515 1520 1523 1526 1528 1531 1535 1537 1541 1544 1546 1549 1552 1554 1557 1559 1561 1562 1563 1563
1497 1497 1494 1491 1481 1476 1480 1476 1470 1463 1462 1460 1461 1459 1457 1456 1454 1454 1458 1462 1466 1472 1477 1482 1489 1495 1500 1501 1505 1512 1513 1519 1522 1524 1526 1529 1534 1540 1543 1546 1548 1550 1553 1555 1558 1560 1561 1561 1562
1499 1486 1489 1488 1488 1495 1485 1493 1475 1469 1463 1461 1459 1456 1453 1451 1451 1450 1453 1455 1459 1464 1469 1477 1485 1492 1493 1495 1500 1505 1509 1508 1513 1518 1520 1520 1526 1534 1541 1545 1547 1550 1551 1553 1555 1557 1558 1559 1560
1496 1485 1487 1487 1492 1496 1492 1497 1485 1478 1469 1463 1459 1455 1450 1446 1445 1444 1446 1449 1454 1459 1464 1470 1478 1484 1485 1489 1494 1499 1505 1505 1506 1512 1517 1514 1522 1528 1533 1539 1542 1547 1548 1550 1553 1554 1555 1555 1557
1489 1487 1489 1491 1497 1500 1499 1502 1492 1481 1478 1466 1461 1456 1449 1442 1440 1441 1444 1449 1453 1458 1463 1468 1473 1477 1479 1484 1488 1495 1496 1498 1497 1509 1516 1520 1523 1526 1527 1534 1540 1543 1544 1547 1549 1551 1551 1553 1555
1495 1498 1511 1512 1517 1513 1499 1499 1497 1484 1468 1469 1463 1457 1449 1443 1442 1444 1446 1449 1453 1456 1462 1468 1472 1477 1482 1486 1492 1497 1500 1501 1507 1514 1514 1518 1520 1523 1526 1531 1535 1539 1542 1542 1545 1546 1548 1548 1549
1505 1507 1520 1514 1514 1508 1497 1499 1494 1488 1477 1471 1465 1459 1452 1447 1445 1448 1450 1453 1456 1461 1464 1468 1475 1480 1485 1487 1491 1495 1501 1506 1506 1506 1514 1516 1518 1520 1524 1527 1533 1535 1535 1539 1541 1543 1543 1544 1546
1503 1515 1512 1514 1522 1516 1513 1490 1489 1488 1479 1473 1469 1462 1458 1453 1451 1452 1453 1456 1459 1463 1469 1473 1478 1483 1487 1490 1488 1494 1501 1503 1507 1506 1509 1510 1512 1517 1522 1525 1530 1531 1532 1535 1537 1540 1539 1540 1541
1504 1510 1514 1521 1529 1513 1505 1503 1495 1487 1485 1479 1474 1471 1467 1463 1458 1458 1457 1459 1463 1466 1470 1474 1478 1481 1486 1484 1492 1492 1498 1502 1505 1507 1509 1510 1512 1517 1521 1523 1527 1528 1530 1531 1534 1536 1535 1536 1536
1511 1512 1514 1517 1517 1523 1510 1506 1494 1494 1492 1485 1482 1479 1474 1470 1468 1465 1464 1464 1466 1470 1472 1476 1480 1482 1488 1487 1490 1494 1497 1501 1504 1508 1510 1513 1515 1518 1520 1523 1525 1526 1527 1530 1532 1532 1531 1532 1532
1506 1509 1516 1525 1520 1519 1518 1507 1495 1495 1491 1488 1486 1484 1481 1478 1475 1473 1473 1474 1475 1478 1480 1481 1482 1487 1490 1493 1496 1498 1501 1504 1507 1512 1514 1516 1517 1518 1520 1520 1522 1525 1528 1529 1528 1528 1528 1527 1528
Wind_Speed
7 4 4 3 3 4 3 5 2 4 8 6 4 5 5 5 5 4 10 19 26 27 27 25 22 20 19 18 16 15 15 14 13 12 10 9 5 6 10 13 13 9 12 13 13 12 12 13 15
7 5 2 1 4 1 5 4 7 2 10 8 3 1 3 2 3 7 18 21 27 27 27 24 23 20 19 18 17 17 16 14 14 13 10 5 5 9 12 15 14 11 13 11 13 12 12 14 17
7 7 3 3 3 6 5 5 5 5 10 8 3 5 2 2 2 17 12 26 26 29 29 26 23 20 19 18 18 17 17 17 15 10 6 6 8 11 15 17 13 11 10 10 13 10 11 13 15
7 5 2 2 7 5 4 5 3 8 7 6 4 2 2 3 4 9 22 27 28 29 28 25 23 19 21 20 17 19 17 15 11 9 9 10 12 14 18 15 13 11 9 11 12 10 10 12 14
8 3 1 5 5 4 3 7 13 6 5 3 4 1 3 4 5 11 24 25 26 26 26 26 24 20 19 19 18 17 17 13 11 12 12 14 16 14 18 14 12 11 9 11 12 8 8 10 11
5 2 3 9 5 4 4 6 6 6 1 5 3 0 2 3 4 15 22 23 24 25 24 25 23 22 22 18 16 16 14 13 14 15 16 16 17 16 12 13 11 10 10 10 10 8 8 8 9
5 3 4 3 2 2 2 2 2 3 6 6 2 2 1 10 12 17 20 22 24 25 24 24 21 19 19 16 16 15 15 15 17 18 16 16 15 14 13 12 11 10 10 10 9 7 7 7 8
2 3 2 4 4 4 3 2 3 4 2 3 2 5 5 13 17 23 21 24 25 25 23 22 19 18 17 17 16 15 16 19 19 18 15 14 13 12 11 12 12 12 12 10 8 7 7 8 10
3 1 2 2 2 3 3 5 2 8 8 8 4 4 5 16 24 25 24 25 27 27 24 21 18 17 18 18 18 18 18 20 20 16 12 12 11 11 12 13 13 13 12 11 9 9 10 12 14
3 3 5 4 3 4 10 6 5 6 10 10 9 6 6 18 27 27 29 30 29 29 26 22 19 19 20 21 21 20 20 22 20 14 9 11 12 12 12 14 14 14 13 14 13 13 15 15 17
2 3 3 5 9 13 8 12 12 5 5 15 14 11 15 20 29 28 30 29 26 24 25 22 21 21 22 22 21 23 23 22 16 13 12 13 14 14 14 13 14 15 14 15 16 17 16 16 16
2 7 5 5 5 6 6 13 6 15 16 15 23 14 19 28 32 32 34 31 29 24 23 21 22 23 25 23 23 23 23 20 17 14 14 13 14 14 15 16 17 16 17 18 17 17 17 16 16
3 3 7 14 19 17 18 14 12 15 14 18 24 18 24 32 34 33 35 31 27 27 23 20 24 26 26 24 24 23 22 19 18 18 16 12 14 16 17 18 18 18 18 17 17 16 15 15 14
5 10 16 12 12 10 5 10 6 4 9 16 19 19 22 32 37 36 39 36 32 28 22 17 25 27 28 26 26 23 21 19 19 19 15 13 14 16 18 19 20 20 18 16 15 14 13 13 12
6 4 7 2 6 6 3 6 5 7 6 11 13 14 23 32 36 39 39 38 36 27 25 20 25 28 30 29 27 24 21 21 20 19 16 14 16 17 18 18 20 19 18 16 14 13 12 10 11
4 3 4 7 5 4 1 7 12 11 15 19 13 10 14 28 36 38 39 33 34 33 32 24 22 29 30 30 27 26 23 22 21 19 17 15 15 18 19 20 20 19 18 16 14 12 11 9 8
5 4 4 7 5 4 3 7 8 19 27 18 20 14 8 19 29 37 37 33 38 33 32 28 23 30 32 30 28 28 25 23 22 20 19 16 16 17 18 20 20 19 17 16 14 13 10 8 7
6 5 4 6 5 0 9 11 12 23 21 18 20 18 14 13 22 28 39 35 38 32 32 29 29 31 32 31 30 31 30 27 24 23 22 18 17 18 18 19 19 19 18 17 14 11 11 9 7
6 4 7 10 9 4 7 9 13 19 18 15 18 19 18 16 13 20 29 37 42 35 31 34 31 32 35 34 32 33 34 32 27 26 25 21 17 19 19 19 19 19 17 16 14 13 12 11 10
7 7 8 8 6 4 8 10 15 12 13 18 17 17 16 16 16 18 26 35 42 41 34 32 34 33 30 26 32 38 38 35 31 28 25 23 20 20 18 18 18 18 18 18 16 15 13 12 11
6 5 5 11 8 2 8 6 6 5 8 11 10 10 12 14 17 17 23 30 37 43 41 34 40 31 21 35 40 41 41 41 35 31 28 26 22 21 19 18 17 18 18 16 16 15 14 13 12
7 2 6 7 5 4 6 4 5 10 7 6 19 25 21 13 17 18 21 28 34 40 45 43 39 42 30 38 48 48 47 47 40 36 33 30 28 22 18 18 17 17 17 17 16 15 14 13 12
8 10 2 1 4 3 8 2 6 7 10 16 18 25 27 15 13 16 21 25 28 35 38 39 41 50 43 39 44 50 46 45 42 38 36 24 22 19 19 19 19 20 17 16 16 15 14 13 12
8 3 3 2 3 3 7 4 5 10 15 16 16 22 22 16 6 12 16 23 26 33 36 38 41 50 52 48 47 46 42 39 32 23 24 18 20 24 23 21 21 20 18 17 16 16 14 14 13
8 6 5 6 6 3 6 4 4 17 13 8 14 17 16 9 7 4 12 18 22 27 31 34 37 40 43 41 37 34 26 4 5 7 14 21 22 23 23 22 21 20 18 17 17 16 15 15 16
4 3 3 2 5 5 5 3 5 15 21 19 22 18 20 17 16 13 9 13 18 22 22 25 29 28 31 28 29 28 17 8 13 23 21 22 21 25 25 21 19 19 18 17 16 17 16 17 17
3 4 1 1 0 2 4 4 5 12 18 19 19 23 27 27 20 17 14 10 13 18 19 15 14 11 16 17 18 10 7 24 19 16 22 27 18 15 17 16 17 16 16 17 16 17 17 17 17
5 3 3 3 5 6 4 4 7 14 15 14 15 19 23 24 26 24 17 11 11 10 7 3 5 2 9 14 2 15 15 14 15 14 10 11 11 14 15 15 17 17 17 17 17 17 16 16 16
4 3 3 1 2 1 6 4 3 4 7 11 12 16 20 24 22 22 25 26 19 15 15 14 11 11 13 13 8 10 11 13 12 9 9 9 11 11 12 14 17 17 15 15 14 14 15 15 16
0 2 3 3 5 2 1 5 2 4 4 4 12 14 16 19 20 23 23 23 22 18 16 16 17 16 16 14 13 13 13 11 9 8 8 9 11 12 12 13 12 12 13 14 14 14 14 14 14
Wind_Direction
225 224 214 215 44 59 253 260 258 311 331 312 265 174 178 332 159 201 156 163 168 167 167 166 170 169 166 163 162 162 158 156 153 151 156 150 137 120 121 124 117 111 103 102 99 91 80 71 64
227 200 170 147 107 127 269 245 240 255 306 303 315 84 61 286 59 145 149 157 167 165 164 162 165 165 166 166 167 164 160 160 155 161 163 153 138 124 123 126 122 119 111 109 100 99 83 75 71
195 187 164 144 172 195 223 225 238 310 325 333 332 30 65 14 13 148 155 154 165 164 164 164 167 166 165 168 168 163 163 158 169 178 178 151 134 127 126 124 126 124 117 115 105 107 87 78 73
174 163 138 182 229 259 233 300 259 312 320 358 353 23 64 344 157 158 157 158 165 163 162 163 165 168 170 170 173 170 176 188 184 179 162 146 135 129 127 126 127 125 118 105 106 105 90 77 73
171 153 153 235 254 261 252 280 297 295 288 319 2 268 70 81 159 166 161 164 168 163 164 166 169 176 175 179 185 170 185 187 172 161 144 139 127 123 135 131 130 130 127 121 119 110 97 81 71
146 124 218 236 244 295 299 276 282 310 320 254 94 14 104 132 165 161 165 165 170 164 172 176 182 184 181 186 188 181 178 169 158 143 150 140 138 145 140 133 141 142 137 131 126 128 101 84 69
133 108 202 215 225 266 276 320 78 318 317 354 310 60 282 168 169 168 165 168 170 174 179 188 189 186 182 186 179 172 165 156 143 150 157 147 149 151 151 150 144 138 138 140 131 121 106 88 75
163 105 221 227 186 246 282 22 32 13 312 313 256 215 214 189 168 170 166 173 175 179 187 190 188 188 181 176 170 165 159 152 160 158 159 153 158 159 153 146 143 142 144 142 136 121 109 98 92
167 79 224 240 198 266 41 20 349 340 315 305 221 268 322 204 171 172 169 175 179 181 190 196 195 190 179 169 162 161 160 166 168 166 166 167 168 163 158 150 148 147 149 146 137 117 108 103 100
118 133 217 222 291 286 300 302 335 306 297 290 275 224 221 180 178 181 177 176 182 187 192 199 202 191 178 170 163 167 172 176 180 182 182 171 166 163 160 154 153 151 147 140 131 121 113 108 102
45 203 240 286 293 297 273 289 288 225 260 270 268 231 218 198 193 192 192 189 183 185 193 198 201 190 181 174 176 181 181 185 190 193 186 172 170 168 170 166 158 151 141 138 134 125 119 111 103
345 245 237 267 267 297 279 285 246 236 244 265 276 275 240 209 204 200 201 196 186 183 192 196 199 192 185 179 187 193 192 190 194 190 177 169 172 171 164 163 154 150 143 137 134 129 123 116 108
185 260 266 284 286 282 273 262 252 247 257 264 268 278 238 223 213 210 207 202 197 188 191 202 200 195 189 189 194 193 194 196 193 177 169 167 171 169 163 160 156 151 147 144 139 135 129 123 116
303 294 292 300 289 282 264 273 271 280 256 276 273 265 232 219 216 208 208 204 204 197 189 202 203 199 193 196 198 197 198 196 188 180 171 158 167 169 167 165 160 155 152 149 145 140 136 131 121
290 324 333 307 302 297 272 316 245 302 316 301 285 255 219 221 217 219 213 205 206 206 201 196 203 200 199 201 201 203 202 195 186 182 177 171 169 172 172 171 167 164 160 159 156 151 146 139 129
346 62 17 290 317 284 341 277 282 300 334 318 307 300 238 221 226 225 220 215 213 211 206 199 201 204 202 206 204 206 202 195 190 185 182 177 175 178 179 177 177 174 171 168 167 164 160 152 139
357 282 276 304 205 265 216 282 275 298 304 299 300 298 273 237 231 228 222 219 215 216 217 208 212 208 204 205 208 208 206 202 195 193 189 186 184 182 188 182 181 182 181 175 176 172 174 168 162
291 294 268 251 268 282 277 266 268 286 289 280 288 289 283 259 244 243 232 220 219 225 219 212 208 208 205 206 210 212 208 206 204 201 196 193 191 187 188 189 187 188 187 185 185 192 184 186 185
257 244 260 274 276 217 253 267 273 276 282 277 276 274 280 270 258 247 241 230 224 226 217 211 212 210 208 209 212 219 214 211 209 208 202 201 197 196 191 195 195 194 198 199 199 201 201 199 196
285 274 278 278 275 215 279 287 270 264 261 266 275 278 280 277 261 246 234 230 223 220 220 213 208 212 212 219 224 227 220 217 216 211 205 205 204 201 200 200 202 206 202 207 211 214 214 210 208
300 249 282 304 325 240 359 279 343 324 310 321 354 321 302 282 280 255 233 226 228 220 222 217 208 195 212 230 230 230 229 221 217 211 204 199 202 205 210 208 210 208 212 220 224 226 226 226 224
316 231 320 322 24 337 18 310 314 331 327 343 334 334 323 293 266 266 230 227 225 229 227 224 207 200 215 230 232 234 231 221 213 212 205 196 190 197 216 219 219 220 220 225 228 229 230 236 243
263 319 331 272 77 8 1 319 284 342 333 332 324 329 325 298 259 249 225 220 224 227 227 226 212 208 223 230 235 239 237 224 218 213 219 209 191 186 200 219 222 225 227 226 229 232 238 242 239
283 4 21 48 68 34 350 357 309 345 319 313 322 330 325 307 237 220 214 220 221 219 220 222 219 215 222 226 232 237 229 215 205 226 219 208 190 198 202 213 225 227 224 230 234 240 241 245 251
13 9 0 358 9 254 26 18 292 320 326 333 338 342 349 7 43 171 213 215 215 214 217 221 221 223 231 232 239 236 227 249 159 201 211 219 212 207 198 212 220 222 228 231 237 244 247 252 258
11 66 110 350 337 311 335 4 305 341 349 351 360 1 33 46 64 76 141 191 199 193 210 219 221 228 233 230 229 221 196 194 229 192 216 223 239 220 206 199 219 225 230 234 244 247 249 253 257
332 30 248 210 220 311 267 343 129 358 347 1 8 17 27 48 62 69 87 137 190 191 195 197 203 218 243 250 230 151 186 203 220 218 255 232 214 213 207 199 221 227 231 239 244 247 250 256 259
90 164 21 16 22 336 330 314 329 356 353 359 10 13 32 53 65 68 75 102 127 154 158 163 74 138 188 126 73 204 234 233 225 223 193 175 180 198 203 212 227 231 235 236 239 244 251 258 264
355 30 32 161 128 305 323 305 339 1 15 330 16 26 38 55 63 74 78 85 89 100 110 114 112 104 134 187 180 184 160 155 155 160 165 179 195 202 209 221 226 224 226 233 243 255 263 266 271
189 41 104 104 303 244 182 284 40 72 43 38 24 33 46 59 70 76 82 93 94 95 106 110 111 115 113 122 125 127 137 141 140 159 173 187 192 193 203 208 213 223 240 252 262 267 271 276 280